When you browse on this site, cookies collect data to enhance your experience and personalize the content and advertising you see.
Visit our Privacy Policy to learn more. By continuing to use the site, you agree to this use of cookies and data.
  • în România
  • Lista ţărilor
  • Pe 7 zile
  • Temperatura apei
  • Meteo pe hartă
  • Widget-uri
  • user-avatar
    Intrare

    Meteo pe oră la Saint-Pierre-des-Corps

    Astăzi, 22 August, Joi

    Timp Temperatura Precipitaţii Vânt Presiune Umiditate
    00:00 +16°C° 0 mm 3 m/s 763 mmHg 66%
    01:00 +16°C° 0 mm 2 m/s 763 mmHg 68%
    02:00 +15°C° 0 mm 2 m/s 763 mmHg 71%
    03:00 +15°C° 0 mm 2 m/s 762 mmHg 73%
    04:00 +15°C° 0 mm 2 m/s 763 mmHg 74%
    05:00 +15°C° 0 mm 2 m/s 763 mmHg 75%
    06:00 +15°C° 0 mm 2 m/s 763 mmHg 76%
    07:00 +18°C° 0 mm 2 m/s 763 mmHg 66%
    08:00 +20°C° 0 mm 3 m/s 764 mmHg 57%
    09:00 +24°C° 0 mm 3 m/s 764 mmHg 48%
    10:00 +25°C° 0 mm 3 m/s 763 mmHg 43%
    11:00 +27°C° 0 mm 3 m/s 763 mmHg 38%
    12:00 +28°C° 0 mm 4 m/s 763 mmHg 33%
    13:00 +29°C° 0 mm 3 m/s 763 mmHg 31%
    14:00 +29°C° 0 mm 3 m/s 762 mmHg 29%
    15:00 +30°C° 0 mm 3 m/s 762 mmHg 28%
    16:00 +28°C° 0 mm 3 m/s 762 mmHg 32%
    17:00 +27°C° 0 mm 3 m/s 761 mmHg 36%
    18:00 +26°C° 0 mm 3 m/s 761 mmHg 40%
    19:00 +24°C° 0 mm 3 m/s 762 mmHg 43%
    20:00 +21°C° 0 mm 3 m/s 762 mmHg 46%
    21:00 +19°C° 0 mm 3 m/s 763 mmHg 48%
    22:00 +18°C° 0 mm 3 m/s 763 mmHg 50%
    23:00 +18°C° 0 mm 3 m/s 762 mmHg 53%

    Mâine, 23 August, Vineri

    Timp Temperatura Precipitaţii Vânt Presiune Umiditate
    00:00 +17°C° 0 mm 3 m/s 762 mmHg 55%
    01:00 +17°C° 0 mm 3 m/s 762 mmHg 58%
    02:00 +16°C° 0 mm 3 m/s 762 mmHg 62%
    03:00 +16°C° 0 mm 3 m/s 762 mmHg 65%
    04:00 +16°C° 0 mm 3 m/s 762 mmHg 67%
    05:00 +16°C° 0 mm 3 m/s 762 mmHg 69%
    06:00 +16°C° 0 mm 3 m/s 761 mmHg 71%
    07:00 +18°C° 0 mm 3 m/s 762 mmHg 64%
    08:00 +21°C° 0 mm 4 m/s 762 mmHg 57%
    09:00 +25°C° 0 mm 4 m/s 762 mmHg 50%
    10:00 +26°C° 0 mm 4 m/s 761 mmHg 44%
    11:00 +28°C° 0 mm 4 m/s 761 mmHg 38%
    12:00 +30°C° 0 mm 4 m/s 760 mmHg 32%
    13:00 +32°C° 0 mm 4 m/s 760 mmHg 30%
    14:00 +32°C° 0 mm 4 m/s 760 mmHg 28%
    15:00 +33°C° 0 mm 3 m/s 759 mmHg 26%
    16:00 +30°C° 0 mm 3 m/s 759 mmHg 31%
    17:00 +29°C° 0 mm 3 m/s 759 mmHg 35%
    18:00 +28°C° 0 mm 3 m/s 758 mmHg 39%
    19:00 +26°C° 0 mm 3 m/s 758 mmHg 42%
    20:00 +24°C° 0 mm 3 m/s 759 mmHg 45%
    21:00 +21°C° 0 mm 4 m/s 759 mmHg 48%
    22:00 +20°C° 0 mm 3 m/s 759 mmHg 51%
    23:00 +19°C° 0 mm 3 m/s 758 mmHg 55%

    Poimâine, 24 August, Sâmbătă

    Timp Temperatura Precipitaţii Vânt Presiune Umiditate
    00:00 +19°C° 0 mm 3 m/s 758 mmHg 59%
    01:00 +18°C° 0 mm 3 m/s 758 mmHg 62%
    02:00 +18°C° 0 mm 3 m/s 758 mmHg 65%
    03:00 +17°C° 0 mm 3 m/s 758 mmHg 68%
    04:00 +17°C° 0 mm 3 m/s 758 mmHg 70%
    05:00 +17°C° 0 mm 3 m/s 757 mmHg 72%
    06:00 +17°C° 0 mm 3 m/s 757 mmHg 73%
    07:00 +20°C° 0 mm 3 m/s 758 mmHg 64%
    08:00 +24°C° 0 mm 3 m/s 758 mmHg 55%
    09:00 +27°C° 0 mm 3 m/s 758 mmHg 46%
    10:00 +29°C° 0 mm 3 m/s 757 mmHg 39%
    11:00 +31°C° 0 mm 3 m/s 757 mmHg 33%
    12:00 +34°C° 0 mm 2 m/s 757 mmHg 27%
    13:00 +34°C° 0 mm 2 m/s 756 mmHg 24%
    14:00 +35°C° 0 mm 2 m/s 756 mmHg 22%
    15:00 +35°C° 0 mm 1 m/s 756 mmHg 20%
    16:00 +33°C° 0 mm 1 m/s 756 mmHg 24%
    17:00 +32°C° 0 mm 1 m/s 755 mmHg 27%
    18:00 +30°C° 0 mm 1 m/s 755 mmHg 30%
    19:00 +28°C° 0 mm 1 m/s 755 mmHg 32%
    20:00 +27°C° 0 mm 1 m/s 756 mmHg 33%
    21:00 +25°C° 0 mm 1 m/s 756 mmHg 35%
    22:00 +24°C° 0 mm 1 m/s 756 mmHg 37%
    23:00 +23°C° 0 mm 1 m/s 756 mmHg 39%

    25 August, Duminică

    Timp Temperatura Precipitaţii Vânt Presiune Umiditate
    00:00 +23°C° 0 mm 1 m/s 756 mmHg 41%
    01:00 +22°C° 0 mm 1 m/s 755 mmHg 42%
    02:00 +22°C° 0 mm 1 m/s 755 mmHg 43%
    03:00 +21°C° 0 mm 1 m/s 755 mmHg 44%
    04:00 +21°C° 0 mm 1 m/s 755 mmHg 46%
    05:00 +22°C° 0 mm 1 m/s 756 mmHg 47%
    06:00 +20°C° 0 mm 0 m/s 756 mmHg 49%
    07:00 +24°C° 0 mm 1 m/s 756 mmHg 44%
    08:00 +26°C° 0 mm 1 m/s 756 mmHg 39%
    09:00 +29°C° 0 mm 2 m/s 757 mmHg 35%
    10:00 +29°C° 0 mm 2 m/s 757 mmHg 34%
    11:00 +30°C° 0 mm 1 m/s 757 mmHg 34%
    12:00 +30°C° 0 mm 1 m/s 757 mmHg 33%
    13:00 +31°C° 0 mm 1 m/s 756 mmHg 33%
    14:00 +31°C° 0 mm 1 m/s 756 mmHg 33%
    15:00 +31°C° 0 mm 2 m/s 756 mmHg 33%
    16:00 +30°C° 0 mm 2 m/s 756 mmHg 37%
    17:00 +30°C° 0 mm 2 m/s 757 mmHg 40%
    18:00 +29°C° 0 mm 2 m/s 757 mmHg 43%
    19:00 +27°C° 0 mm 2 m/s 757 mmHg 48%
    20:00 +25°C° 0 mm 3 m/s 757 mmHg 52%
    21:00 +24°C° 0 mm 3 m/s 758 mmHg 56%
    22:00 +22°C° 0 mm 3 m/s 758 mmHg 60%
    23:00 +22°C° 0 mm 3 m/s 758 mmHg 63%

    26 August, Luni

    Timp Temperatura Precipitaţii Vânt Presiune Umiditate
    00:00 +21°C° 0 mm 3 m/s 758 mmHg 66%
    01:00 +21°C° 0 mm 3 m/s 758 mmHg 66%
    02:00 +20°C° 0 mm 3 m/s 758 mmHg 67%
    03:00 +20°C° 0 mm 3 m/s 757 mmHg 67%
    04:00 +20°C° 0 mm 2 m/s 758 mmHg 66%
    05:00 +20°C° 0 mm 2 m/s 758 mmHg 66%
    06:00 +20°C° 0 mm 2 m/s 758 mmHg 65%
    07:00 +22°C° 0 mm 3 m/s 758 mmHg 58%
    08:00 +26°C° 0 mm 3 m/s 758 mmHg 50%
    09:00 +29°C° 0 mm 4 m/s 758 mmHg 43%
    10:00 +32°C° 0 mm 4 m/s 758 mmHg 38%
    11:00 +34°C° 0 mm 4 m/s 758 mmHg 33%
    12:00 +36°C° 0 mm 4 m/s 758 mmHg 28%
    13:00 +36°C° 0 mm 4 m/s 757 mmHg 27%
    14:00 +37°C° 0 mm 4 m/s 757 mmHg 25%
    15:00 +37°C° 0 mm 4 m/s 756 mmHg 23%
    16:00 +36°C° 0 mm 4 m/s 756 mmHg 27%
    17:00 +34°C° 0 mm 4 m/s 756 mmHg 30%
    18:00 +33°C° 0 mm 3 m/s 756 mmHg 34%
    19:00 +30°C° 0 mm 3 m/s 756 mmHg 37%
    20:00 +28°C° 0 mm 3 m/s 757 mmHg 40%
    21:00 +26°C° 0 mm 4 m/s 757 mmHg 44%
    22:00 +26°C° 0 mm 3 m/s 757 mmHg 47%
    23:00 +25°C° 0 mm 3 m/s 757 mmHg 50%

    27 August, Marţi

    Timp Temperatura Precipitaţii Vânt Presiune Umiditate
    00:00 +24°C° 0 mm 3 m/s 757 mmHg 53%
    01:00 +22°C° 0 mm 3 m/s 756 mmHg 56%
    02:00 +22°C° 0 mm 3 m/s 756 mmHg 59%
    03:00 +21°C° 0 mm 3 m/s 756 mmHg 63%
    04:00 +21°C° 0 mm 3 m/s 756 mmHg 63%
    05:00 +21°C° 0 mm 3 m/s 756 mmHg 64%
    06:00 +21°C° 0 mm 3 m/s 756 mmHg 65%
    07:00 +24°C° 0 mm 3 m/s 756 mmHg 58%
    08:00 +27°C° 0 mm 4 m/s 756 mmHg 51%
    09:00 +30°C° 0 mm 4 m/s 755 mmHg 44%
    10:00 +32°C° 0 mm 4 m/s 755 mmHg 39%
    11:00 +34°C° 0 mm 4 m/s 755 mmHg 35%
    12:00 +35°C° 0 mm 3 m/s 754 mmHg 30%
    13:00 +36°C° 0 mm 3 m/s 754 mmHg 29%
    14:00 +36°C° 0 mm 2 m/s 754 mmHg 27%
    15:00 +36°C° 0 mm 2 m/s 753 mmHg 26%
    16:00 +34°C° 0.1 mm 2 m/s 753 mmHg 33%
    17:00 +31°C° 0.1 mm 3 m/s 754 mmHg 39%
    18:00 +29°C° 0.1 mm 4 m/s 754 mmHg 46%
    19:00 +27°C° 0.3 mm 4 m/s 754 mmHg 55%
    20:00 +25°C° 0.3 mm 5 m/s 754 mmHg 65%
    21:00 +22°C° 0.3 mm 5 m/s 755 mmHg 74%
    22:00 +21°C° 0.3 mm 4 m/s 755 mmHg 76%
    23:00 +21°C° 0.3 mm 3 m/s 755 mmHg 77%
    Arată mai mult